KH6HHG Weather Reports


time (UTC)temp
F
wind
direction
speed
knots
gust
knots
rain 1hr
in
rain 24hr
in
rain mn
in
humidity
%
barometer
mb
20260906101004 71 61 2.6 4.3 0.01 0.07 0.00 94 1006.1
20260906100505 71 121 1.7 4.3 0.03 0.07 0.00 94 1006.1
20260906100004 71 58 4.3 6.1 0.03 0.07 0.00 94 1006.3
20260906095505 71 102 0.9 2.6 0.03 0.07 0.07 94 1006.3
20260906094504 71 77 2.6 4.3 0.03 0.07 0.07 94 1006.3
20260906093004 72 0 2.6 4.3 0.03 0.07 0.07 93 1006.6
20260906092505 72 351 0.9 2.6 0.03 0.07 0.07 94 1006.7
20260906092004 72 0 1.7 4.3 0.03 0.07 0.07 93 1006.8
20260906091505 72 92 0.9 2.6 0.03 0.07 0.07 93 1006.9
20260906085504 72 15 0.9 2.6 0.00 0.04 0.04 93 1007.0
20260906085003 72 15 1.7 2.6 0.00 0.04 0.04 93 1007.1
20260906084504 72 53 1.7 2.6 0.00 0.04 0.04 93 1007.1
20260906083506 72 76 3.5 5.2 0.00 0.04 0.04 92 1007.2
20260906082005 72 29 5.2 10.4 0.00 0.04 0.04 92 1007.2
20260906081505 72 28 4.3 8.7 0.00 0.04 0.04 92 1007.1
20260906080504 72 24 5.2 10.4 0.00 0.04 0.04 92 1007.3
20260906075004 72 63 1.7 4.3 0.00 0.04 0.04 92 1007.2
20260906074505 72 61 2.6 7.0 0.00 0.04 0.04 92 1007.2
20260906074004 72 24 5.2 7.8 0.00 0.04 0.04 92 1007.3
20260906073504 72 31 1.7 4.3 0.00 0.04 0.04 92 1007.3
20260906073004 72 48 3.5 7.0 0.00 0.04 0.04 92 1007.3
20260906072504 72 36 2.6 7.8 0.00 0.04 0.04 92 1007.2
20260906072004 72 51 5.2 8.7 0.00 0.04 0.04 92 1007.1
20260906071005 71 70 1.7 6.1 0.00 0.04 0.04 93 1007.0
20260906065505 71 50 4.3 8.7 0.00 0.04 0.04 93 1006.7
20260906065004 71 64 3.5 7.0 0.00 0.04 0.04 93 1006.6
20260906064505 71 29 5.2 8.7 0.00 0.04 0.04 93 1006.6
20260906064004 71 37 4.3 8.7 0.00 0.04 0.04 93 1006.5
20260906062504 71 39 4.3 11.3 0.00 0.04 0.04 93 1006.2
20260906061504 72 30 5.2 8.7 0.00 0.04 0.04 93 1006.2
20260906061004 72 19 4.3 7.0 0.00 0.04 0.04 93 1006.2
20260906060006 72 6 3.5 7.0 0.00 0.04 0.04 92 1006.3
20260906055004 72 7 3.5 7.0 0.00 0.04 0.04 92 1006.2
20260906054004 72 345 6.1 12.2 0.00 0.04 0.04 92 1006.0
20260906053006 72 30 7.0 12.2 0.00 0.04 0.04 93 1005.9
20260906052505 72 11 4.3 7.8 0.00 0.04 0.04 93 1005.8
20260906052005 72 7 2.6 6.1 0.00 0.04 0.04 93 1005.8
20260906050005 72 19 4.3 8.7 0.00 0.04 0.04 92 1005.7
20260906045004 72 22 4.3 7.0 0.00 0.04 0.04 92 1005.7
20260906044505 72 35 5.2 8.7 0.00 0.04 0.04 92 1005.6
20260906044004 72 65 4.3 7.8 0.01 0.04 0.04 92 1005.6
20260906043505 72 63 6.1 13.9 0.01 0.04 0.04 92 1005.6
20260906041004 72 23 5.2 10.4 0.01 0.04 0.04 93 1005.1
20260906040505 72 12 6.1 12.2 0.01 0.04 0.04 92 1005.2
20260906040005 72 28 5.2 10.4 0.01 0.04 0.04 92 1005.1
20260906034004 73 5 6.1 8.7 0.00 0.03 0.03 92 1005.2
20260906033504 73 351 7.0 11.3 0.00 0.03 0.03 92 1005.3
20260906033005 73 3 6.1 13.0 0.00 0.03 0.03 92 1005.3
20260906031505 73 18 5.2 11.3 0.00 0.03 0.03 91 1005.1
20260906031005 73 2 7.8 13.9 0.01 0.03 0.03 91 1005.1
20260906022504 75 16 7.0 14.8 0.02 0.03 0.03 90 1004.9
20260906021504 75 28 7.8 13.0 0.02 0.03 0.03 90 1004.9
20260906021005 75 41 6.1 14.8 0.02 0.03 0.03 90 1005.0
20260906020504 75 1 7.8 14.8 0.02 0.03 0.03 90 1004.9
20260906020004 75 14 8.7 13.0 0.02 0.03 0.03 91 1004.9
20260906015504 75 18 8.7 13.9 0.01 0.02 0.02 90 1004.9
20260906014505 76 31 7.8 17.4 0.01 0.02 0.02 88 1005.0
20260906014004 76 3 4.3 10.4 0.00 0.01 0.01 88 1005.0
20260906012504 77 5 5.2 11.3 0.00 0.02 0.01 87 1005.2
20260906012003 77 18 6.1 13.0 0.00 0.02 0.01 86 1005.2
20260906011004 79 348 7.8 12.2 0.00 0.02 0.01 84 1005.2
20260906010004 78 6 8.7 13.0 0.00 0.02 0.01 83 1005.2
20260906005504 79 9 7.0 14.8 0.00 0.02 0.01 83 1005.2
20260906004504 77 39 7.0 17.4 0.00 0.02 0.01 85 1005.2
20260906004004 77 46 7.8 19.1 0.00 0.02 0.01 87 1005.2
20260906003505 77 14 13.0 19.1 0.00 0.02 0.01 82 1005.1
20260906002504 77 19 11.3 19.1 0.00 0.02 0.01 84 1005.2
20260906001504 78 16 10.4 19.1 0.00 0.02 0.01 83 1005.2
20260906001005 79 25 10.4 19.1 0.00 0.02 0.01 80 1005.2
20260906000503 80 8 10.4 15.6 0.00 0.02 0.01 79 1005.2
20260905235004 80 33 9.6 18.2 0.00 0.02 0.01 80 1005.1
20260905234504 80 27 13.9 20.9 0.00 0.02 0.01 78 1005.3
20260905233004 80 9 11.3 20.0 0.00 0.02 0.01 80 1005.6
20260905232505 80 15 7.0 14.8 0.00 0.02 0.01 82 1005.7
20260905232004 80 30 9.6 15.6 0.00 0.02 0.01 80 1005.8
20260905231505 79 8 10.4 15.6 0.00 0.02 0.01 81 1005.8
20260905231004 79 18 10.4 18.2 0.00 0.02 0.01 81 1005.9
20260905230504 80 30 8.7 14.8 0.00 0.02 0.01 83 1006.1
20260905225504 80 23 9.6 13.9 0.00 0.02 0.01 80 1006.3
20260905225004 81 24 7.8 12.2 0.00 0.02 0.01 81 1006.3
20260905224004 81 24 8.7 15.6 0.00 0.02 0.01 79 1006.5
20260905223505 80 27 7.8 14.8 0.00 0.02 0.01 78 1006.6
20260905223004 80 25 7.8 15.6 0.00 0.02 0.01 79 1006.6
20260905222004 80 24 7.8 20.9 0.00 0.02 0.01 80 1006.5
20260905221004 80 18 8.7 14.8 0.00 0.02 0.01 80 1006.6
20260905220004 81 29 13.9 20.9 0.00 0.02 0.01 77 1006.8
20260905215004 80 18 9.6 15.6 0.00 0.02 0.01 79 1006.8
20260905213004 81 15 10.4 17.4 0.00 0.02 0.01 77 1006.8
20260905211504 81 2 10.4 17.4 0.00 0.02 0.01 75 1006.9
20260905211004 81 46 8.7 18.2 0.00 0.02 0.01 76 1007.0
20260905210503 81 20 8.7 18.2 0.00 0.02 0.01 76 1007.0
20260905205003 81 28 12.2 19.1 0.00 0.02 0.01 73 1007.0
20260905204504 81 7 10.4 17.4 0.00 0.02 0.01 75 1007.0
20260905204004 81 17 8.7 18.2 0.00 0.02 0.01 74 1007.2
20260905202005 80 19 8.7 15.6 0.00 0.02 0.01 75 1007.3
20260905201003 80 3 11.3 20.0 0.00 0.02 0.01 75 1007.3
20260905200504 80 24 12.2 19.1 0.00 0.02 0.01 76 1007.3
20260905195004 80 34 9.6 21.7 0.00 0.02 0.01 75 1007.3
20260905193504 80 22 7.8 14.8 0.00 0.02 0.01 76 1007.4
20260905193004 79 44 5.2 13.9 0.00 0.02 0.01 76 1007.5
20260905192504 79 21 8.7 15.6 0.00 0.02 0.01 77 1007.4
20260905191504 78 30 11.3 19.1 0.00 0.02 0.01 78 1007.3
20260905191003 79 34 10.4 17.4 0.00 0.02 0.01 77 1007.3
20260905190505 79 7 7.8 13.0 0.00 0.02 0.01 77 1007.2
20260905190004 79 26 7.8 11.3 0.00 0.02 0.01 78 1007.1
20260905185005 78 26 7.8 15.6 0.00 0.02 0.01 77 1007.1
20260905184004 76 24 9.6 19.1 0.00 0.02 0.01 79 1007.0
20260905181004 73 62 7.8 13.9 0.00 0.02 0.01 83 1007.4
20260905180503 73 25 6.1 14.8 0.00 0.02 0.01 84 1007.4
20260905180004 73 23 7.8 17.4 0.00 0.02 0.01 84 1007.5
20260905175004 72 7 6.1 11.3 0.00 0.03 0.01 85 1007.3
20260905173504 71 37 7.8 13.0 0.00 0.03 0.01 85 1006.9
20260905171504 70 357 6.1 17.4 0.00 0.03 0.01 87 1006.9
20260905170504 70 25 8.7 14.8 0.00 0.03 0.01 87 1006.8
20260905165004 69 20 8.7 13.9 0.00 0.03 0.01 87 1006.6
20260905162004 68 45 6.1 10.4 0.00 0.03 0.01 84 1006.7
20260905161504 68 52 3.5 8.7 0.00 0.03 0.01 83 1006.7
20260905161003 68 31 6.1 12.2 0.00 0.03 0.01 85 1006.6
20260905155004 67 31 4.3 8.7 0.00 0.04 0.01 84 1006.6
20260905154504 67 42 3.5 8.7 0.00 0.04 0.01 84 1006.6
20260905154005 67 46 2.6 7.0 0.00 0.04 0.01 84 1006.6
20260905153003 67 29 4.3 12.2 0.00 0.04 0.01 84 1006.4
20260905152504 67 29 5.2 10.4 0.00 0.05 0.01 85 1006.3
20260905151504 67 13 4.3 7.0 0.00 0.05 0.01 85 1006.4
20260905150504 66 37 5.2 7.8 0.00 0.05 0.01 83 1006.4
20260905145004 65 18 3.5 8.7 0.00 0.05 0.01 87 1006.4
20260905144503 65 75 3.5 6.1 0.00 0.05 0.01 87 1006.5
20260905144004 65 80 4.3 6.1 0.00 0.05 0.01 87 1006.6
20260905143504 65 73 4.3 7.0 0.00 0.05 0.01 87 1006.5
20260905142504 66 74 2.6 4.3 0.00 0.05 0.01 87 1006.6
20260905141004 66 85 4.3 6.1 0.00 0.05 0.01 86 1006.7
20260905140503 66 76 2.6 6.1 0.00 0.05 0.01 86 1006.7
20260905134504 65 83 3.5 6.1 0.00 0.05 0.01 86 1006.6
20260905134004 65 52 1.7 6.1 0.00 0.05 0.01 86 1006.6
20260905133504 65 36 2.6 4.3 0.00 0.05 0.01 86 1006.6
20260905132504 65 80 2.6 4.3 0.00 0.05 0.01 85 1006.6
20260905131505 65 5 1.7 6.1 0.00 0.05 0.01 84 1006.5
20260905131004 65 9 2.6 4.3 0.00 0.05 0.01 84 1006.5
20260905130005 66 85 0.9 6.1 0.00 0.05 0.01 85 1006.5
20260905125004 66 25 3.5 5.2 0.00 0.05 0.01 87 1006.5
20260905124504 66 23 4.3 7.0 0.00 0.05 0.01 87 1006.5
20260905124004 66 126 2.6 6.1 0.00 0.05 0.01 84 1006.6
20260905123504 66 81 3.5 6.1 0.00 0.05 0.01 84 1006.5
20260905122504 67 23 1.7 4.3 0.00 0.05 0.01 83 1006.6
20260905121004 67 31 3.5 7.0 0.00 0.05 0.01 84 1006.8
20260905115004 68 23 5.2 10.4 0.00 0.05 0.01 89 1007.0
20260905113004 69 14 7.0 11.3 0.00 0.05 0.01 89 1007.1
20260905112504 69 11 7.8 15.6 0.01 0.05 0.01 89 1007.2
20260905111004 69 36 7.0 13.0 0.01 0.06 0.01 89 1007.3
20260905110008 69 33 7.8 13.9 0.01 0.06 0.01 90 1007.3
20260905105005 69 34 8.7 13.9 0.01 0.06 0.01 91 1007.5
20260905104504 69 12 7.8 14.8 0.01 0.06 0.01 92 1007.6
20260905103505 69 19 7.8 13.9 0.01 0.06 0.01 91 1007.8
20260905103005 69 18 7.8 15.6 0.01 0.06 0.01 91 1007.8
20260905102504 69 10 7.0 15.6 0.00 0.05 0.00 91 1007.8
20260905102004 69 11 7.0 14.8 0.00 0.05 0.00 91 1007.8